Starlink 5169

operational
NORAD ID: 54060 Int'l Des: 2022-136 Owner: SPXS Country: US Constellation: starlink
LEOCIRCULAR

About Starlink 5169

Description loading...

Live Position

Loading 3D Globe...

Upcoming Passes

Altitude History

Altitude vs Time

uPlot chart will show altitude changes over time

Two-Line Element Set

1 54060U 22136K 26034.47082703 .00000971 00000-0 79091-4 0 9992
2 54060 53.2179 107.3935 0001263 90.1562 269.9575 15.08840301182102
Epoch: Feb 3, 2026 • Age: 8 hours

Current Status

Altitude 539.7 km
Velocity 7.60 km/s
Sub-Earth Point 16.13°N, 54.26°E
Launch Date Oct 20, 2022
Age 3.2 years
Type internet

Technical Details

Classification Payload
Mass 305.00 kg
Dry Mass 290.00 kg
Total Mass 305.00 kg
Length 0.20 m
Diameter 2.80 m
Span 9.00 m
Shape Box + pan
Manufacturer SPXS
Bus Type Starlink
Phase Status In Orbit
Owner/State SPXS/US

Large Constellations

Loading constellations...